Wetbulb
57.85 57.74 57.53 57.20 57.12 56.76 56.50 56.05 56.05 56.14 55.57 55.84 56.34 56.58 56.57 56.81 56.96 56.99 57.26 57.03 56.63 56.56 56.91 58.86 58.73 59.10 53.60 49.61 49.38 64.67 71.27 69.87 65.28 57.06 54.62 58.83 59.53 57.94 54.79 58.31 60.44 58.38 59.96 62.57 65.77 66.18 66.02
57.67 57.52 57.20 56.99 56.73 56.51 56.18 55.95 55.65 55.71 55.54 55.75 56.07 56.40 56.56 56.50 56.63 56.72 56.72 56.44 56.05 56.09 56.64 59.37 60.33 59.79 49.78 45.51 60.32 65.52 65.88 64.59 60.02 55.38 53.44 58.08 60.87 62.23 58.63 58.94 57.60 59.67 59.56 59.97 65.05 65.35 65.24
57.72 57.30 57.15 56.88 56.59 56.39 56.36 55.80 55.43 55.25 55.16 55.44 55.81 56.33 56.67 56.39 56.28 56.31 56.09 55.57 55.61 55.65 56.68 59.79 59.75 57.78 52.40 50.20 60.49 64.20 64.64 61.58 58.37 55.82 54.32 57.45 62.08 59.70 59.91 55.78 59.54 57.90 52.32 56.23 63.36 64.17 63.96
57.74 57.21 56.95 56.74 56.76 56.73 56.24 55.67 55.34 55.60 55.53 55.66 55.86 56.02 56.00 55.96 55.88 55.59 55.52 54.98 54.83 56.02 56.70 59.90 59.85 55.69 50.34 62.53 61.08 59.95 63.32 60.95 59.24 55.71 55.43 58.54 61.60 59.24 58.44 58.68 54.87 51.53 48.54 45.30 61.19 63.23 64.06
58.52 57.81 56.99 56.62 56.88 56.73 56.44 55.75 55.38 55.64 55.71 55.97 56.05 55.93 55.58 55.62 55.62 55.25 54.31 54.15 55.22 57.01 58.40 60.16 53.73 52.29 51.59 62.86 50.64 52.69 58.48 61.13 59.13 55.83 54.32 58.14 55.31 51.95 53.34 49.81 45.67 46.84 42.85 45.52 49.99 63.58 62.15
58.28 57.79 56.79 56.38 56.14 56.45 56.10 55.84 55.48 55.49 55.70 55.80 55.66 55.46 55.36 55.19 54.68 54.01 53.35 53.68 54.54 56.12 58.65 59.75 58.35 49.68 53.49 54.40 51.20 53.33 54.13 61.32 57.30 55.15 52.65 51.32 49.15 48.08 47.25 44.44 38.75 42.90 42.87 44.90 46.39 57.59 61.00
58.02 57.11 56.72 56.28 55.80 55.92 55.60 55.31 55.15 55.24 55.64 55.60 55.44 54.99 54.77 54.40 53.92 52.94 50.81 47.04 45.70 46.23 50.42 48.58 50.45 51.62 53.75 52.04 53.37 50.39 52.47 55.20 55.15 51.05 45.69 50.83 46.49 43.61 47.29 47.60 48.47 47.31 46.14 46.15 49.85 52.49 59.04
57.64 56.85 56.44 55.97 55.78 55.65 55.25 55.20 55.17 55.26 55.30 55.40 55.13 54.83 54.42 53.92 53.19 52.57 49.37 44.88 47.85 47.59 42.26 50.54 53.42 53.80 55.85 50.52 48.32 51.04 52.59 50.50 52.50 47.56 49.18 47.22 43.68 49.32 51.70 50.96 49.42 48.36 46.03 45.78 49.19 54.06 56.55
56.99 56.45 56.16 56.05 56.11 55.80 55.64 55.40 54.95 54.95 54.89 54.87 54.64 54.44 53.76 53.15 52.41 49.75 47.11 48.68 52.78 49.33 40.48 46.06 48.71 51.04 48.16 46.76 47.32 50.93 51.64 50.47 52.01 49.63 48.86 45.27 49.25 53.30 51.99 50.28 49.17 47.30 44.45 46.66 46.26 55.50 60.44
56.42 56.35 56.07 55.91 55.62 55.50 54.98 53.77 54.01 54.46 54.56 54.54 54.39 54.19 53.35 52.02 47.74 45.96 47.85 50.48 50.28 48.56 34.73 41.53 44.16 47.30 47.20 47.51 44.62 54.63 54.50 50.79 50.58 49.84 51.28 46.87 52.19 51.11 50.39 49.44 49.17 40.78 48.20 48.72 47.52 43.59 46.48
56.45 56.17 55.85 55.56 54.61 54.26 53.67 53.18 54.08 54.52 54.35 54.39 54.33 53.74 52.34 50.88 43.56 44.49 49.85 51.04 51.55 45.58 29.11 46.05 43.03 48.96 45.94 43.47 46.02 47.30 51.35 49.42 46.08 47.21 46.08 45.74 48.13 48.20 47.31 48.14 50.32 47.05 50.02 47.32 47.09 42.18 40.13
56.18 55.81 55.34 55.08 54.49 54.30 54.46 54.42 54.56 54.41 54.43 54.13 53.76 52.76 51.70 48.49 45.85 47.69 50.39 51.17 46.34 35.27 31.29 42.18 44.87 43.41 42.35 42.41 44.61 47.77 48.14 48.22 48.40 45.61 44.82 45.41 49.48 48.67 48.71 51.29 50.73 50.75 46.80 44.24 41.92 39.97 34.97
55.68 55.17 55.29 55.40 55.23 54.82 54.58 54.54 54.66 54.35 53.95 53.27 52.31 51.17 50.08 50.81 45.72 50.03 50.34 46.88 36.10 30.47 43.72 40.42 40.30 41.66 40.49 40.63 42.43 43.65 44.12 40.51 38.80 34.38 35.25 41.94 43.64 45.09 48.20 44.85 47.77 46.16 39.36 33.67 33.73 33.18 33.94
55.35 55.56 55.38 55.21 54.92 54.90 54.74 54.96 54.58 54.19 53.54 52.41 50.65 49.83 49.90 51.43 48.51 51.03 47.84 42.19 32.27 40.60 38.84 42.30 41.59 41.37 39.30 41.06 40.83 42.81 40.63 37.66 42.55 39.41 35.10 34.28 35.43 42.67 46.72 43.76 42.22 42.37 39.97 34.57 29.97 30.59 34.46
55.66 55.44 55.24 55.07 54.97 55.00 54.96 54.80 54.35 53.74 53.00 51.71 49.86 47.97 48.30 50.70 52.10 51.14 44.00 33.88 32.64 38.31 43.22 42.04 40.76 36.92 38.92 41.91 41.31 41.06 39.85 38.86 42.47 40.79 34.91 33.37 36.44 45.15 46.13 44.95 43.55 40.95 38.79 41.80 36.23 34.30 34.36
55.62 55.40 55.17 55.12 54.37 54.70 54.96 54.66 54.17 53.66 52.89 51.37 45.49 46.40 48.16 54.36 52.06 46.26 39.56 36.84 38.81 45.12 45.39 42.81 36.54 39.55 35.98 39.15 38.74 37.15 39.19 42.26 43.01 44.52 40.53 36.69 33.13 39.33 44.55 45.01 44.20 40.07 43.47 37.22 35.18 29.85 29.00
55.40 55.28 54.55 54.94 54.34 54.19 55.15 54.92 54.35 53.54 52.36 51.24 47.70 46.15 51.21 51.54 50.05 43.66 36.89 38.63 44.50 47.28 47.21 42.64 39.83 38.33 37.90 37.57 38.82 37.03 38.57 42.42 44.66 43.45 41.95 36.40 33.54 35.96 40.15 37.11 36.18 37.97 36.35 36.34 35.90 35.64 31.34
55.11 54.57 54.49 54.46 54.69 54.93 55.27 55.02 53.99 52.56 51.36 48.87 45.73 41.52 52.62 51.35 43.99 41.12 37.74 42.32 45.65 44.25 45.92 43.61 43.62 41.46 38.86 39.30 37.74 37.96 38.10 41.55 45.51 43.19 38.29 37.79 32.12 29.77 34.18 41.41 42.69 40.06 36.07 33.81 31.12 32.40 33.94
54.95 53.98 54.53 54.96 55.01 55.25 55.41 54.68 53.67 52.48 51.46 45.28 43.68 44.39 51.13 50.73 36.72 37.27 41.54 43.98 44.93 43.61 43.21 42.34 41.40 41.96 41.46 37.71 35.03 39.37 41.04 45.66 45.66 42.59 37.29 37.65 30.39 27.16 32.28 34.46 38.26 36.56 38.35 35.15 33.79 32.03 32.64
54.91 54.83 54.52 55.24 55.44 55.39 55.41 54.50 53.52 52.65 52.13 46.04 44.56 39.64 43.49 43.72 42.12 39.15 38.47 39.64 40.35 46.63 43.76 44.47 42.17 41.75 39.26 36.86 37.38 36.60 38.73 44.01 45.90 45.34 50.65 42.26 30.30 28.93 26.19 29.79 34.48 33.93 37.72 38.81 32.32 28.04 30.87
54.46 54.48 54.73 55.54 55.48 55.62 55.53 54.78 54.01 52.80 52.09 47.73 44.37 40.30 41.07 36.49 39.18 39.06 41.03 40.51 40.04 38.59 42.56 42.17 40.05 40.60 36.24 32.37 33.87 34.80 37.72 38.65 42.81 47.01 42.43 36.03 29.03 31.18 31.71 36.99 37.81 37.06 37.27 38.65 35.24 33.69 30.21
54.28 54.28 54.83 55.07 55.38 55.60 55.60 55.21 54.43 53.23 51.85 47.76 42.49 41.25 41.90 38.14 39.36 39.79 37.85 36.32 38.93 39.75 39.23 37.71 37.30 40.25 37.79 33.39 33.98 32.51 35.24 34.00 33.54 38.06 37.40 36.86 31.50 32.95 32.56 38.37 38.32 36.39 38.87 39.39 39.54 39.26 38.01
54.29 54.21 54.58 54.71 55.36 55.44 55.68 55.47 54.84 53.28 51.22 46.54 47.17 46.48 41.44 38.99 37.26 35.55 35.58 37.60 39.72 40.30 42.34 42.59 41.45 38.12 37.00 39.05 40.72 38.90 38.26 37.30 36.99 33.34 32.99 34.92 33.37 30.67 25.08 34.91 35.27 31.08 35.35 37.71 39.08 41.52 40.84
54.01 54.19 54.46 54.75 54.90 55.44 55.72 55.84 55.60 54.48 52.05 48.05 48.00 46.91 40.21 35.83 37.90 38.03 40.90 41.91 40.88 39.93 37.91 41.11 41.35 37.42 41.41 44.03 42.27 38.33 36.45 35.72 37.72 37.58 34.73 32.56 31.87 31.21 26.78 29.96 22.58 32.76 39.92 40.91 41.56 42.44 43.43
53.97 54.11 54.27 54.62 54.78 55.46 55.81 56.06 56.05 55.07 53.62 49.64 50.89 48.93 43.15 35.94 40.60 42.07 41.46 40.54 40.27 40.37 39.47 41.60 43.01 42.21 42.54 39.90 33.91 31.57 31.93 33.98 36.68 38.46 36.83 34.22 31.10 28.11 26.32 25.92 30.95 35.93 38.75 39.39 37.18 37.97 43.26
53.70 53.86 54.01 54.38 54.49 55.57 55.90 56.29 56.38 55.37 54.01 50.22 50.81 51.40 48.03 39.28 38.82 45.73 41.65 41.23 36.68 35.24 38.33 41.48 43.74 44.44 41.72 35.80 33.38 26.56 28.72 31.07 31.48 33.92 35.68 35.74 35.03 30.73 30.90 24.77 23.63 32.38 40.89 45.06 41.71 32.47 43.54
53.31 53.56 53.80 54.17 54.47 55.21 55.89 56.21 56.68 56.16 54.56 49.53 49.73 51.47 48.81 40.92 43.05 42.65 39.94 38.85 41.25 38.12 36.25 38.45 39.89 39.82 39.86 32.64 31.24 32.17 29.62 34.08 26.71 26.60 28.12 29.34 29.24 26.51 29.38 27.37 32.91 39.83 41.97 44.45 31.41 31.73 41.44
53.19 53.39 53.52 54.11 54.60 54.92 55.57 56.23 56.19 56.06 55.70 50.47 49.79 52.32 48.31 44.12 44.88 47.62 48.36 43.37 41.90 39.59 35.69 39.37 38.89 37.56 34.91 28.08 26.26 24.18 27.52 31.83 30.69 31.44 30.19 31.76 32.37 30.63 32.69 27.24 26.00 41.46 41.47 36.32 39.49 40.63 40.90
53.04 53.37 53.41 53.93 54.46 54.61 55.05 55.60 55.59 55.34 55.44 53.54 47.65 52.14 52.88 47.46 46.50 50.53 50.73 50.96 48.91 46.78 41.83 41.06 38.30 37.59 37.12 30.49 31.76 25.84 31.28 33.41 28.07 20.49 33.88 30.71 33.07 29.86 32.23 35.35 40.96 40.88 39.20 42.32 41.15 39.10 39.59
MSLP
1023.37 1022.98 1022.58 1022.20 1021.84 1021.47 1021.05 1020.60 1020.10 1019.61 1019.12 1018.58 1018.09 1017.62 1017.11 1016.59 1016.02 1015.47 1015.02 1014.58 1014.18 1013.92 1013.58 1013.15 1012.98 1012.99 1013.13 1012.06 1008.99 1006.55 1007.18 1007.95 1008.59 1008.96 1009.13 1009.44 1009.60 1009.62 1009.36 1008.49 1008.23 1007.88 1007.34 1007.30 1007.30 1007.93 1008.32
1023.32 1022.93 1022.54 1022.15 1021.77 1021.32 1020.85 1020.39 1019.93 1019.47 1019.02 1018.52 1017.93 1017.38 1016.82 1016.27 1015.73 1015.20 1014.65 1014.23 1013.80 1013.55 1013.27 1012.90 1012.62 1012.84 1012.62 1010.35 1006.28 1006.32 1007.10 1008.03 1008.28 1008.70 1008.95 1009.17 1008.80 1008.70 1008.69 1008.00 1007.82 1007.01 1006.85 1006.40 1006.83 1008.04 1008.47
1023.35 1022.94 1022.50 1022.15 1021.80 1021.38 1020.93 1020.46 1019.92 1019.39 1018.84 1018.30 1017.73 1017.16 1016.54 1015.94 1015.35 1014.86 1014.32 1013.74 1013.39 1013.08 1012.94 1012.62 1012.45 1012.56 1011.62 1007.91 1005.93 1006.33 1006.81 1007.23 1007.64 1008.10 1008.48 1008.30 1008.62 1008.89 1008.40 1007.78 1006.94 1006.77 1006.76 1006.26 1006.78 1007.92 1008.46
1023.28 1022.93 1022.55 1022.16 1021.75 1021.34 1020.88 1020.35 1019.82 1019.33 1018.82 1018.17 1017.50 1016.92 1016.28 1015.67 1014.95 1014.39 1013.89 1013.17 1012.66 1012.50 1012.42 1012.33 1012.37 1012.22 1010.00 1006.26 1005.89 1006.58 1006.82 1007.08 1007.29 1007.59 1007.72 1007.85 1008.64 1008.74 1008.67 1007.57 1006.99 1006.93 1006.86 1006.67 1006.72 1007.14 1008.51
1023.23 1022.92 1022.58 1022.16 1021.75 1021.29 1020.81 1020.35 1019.81 1019.20 1018.64 1018.03 1017.30 1016.68 1015.98 1015.27 1014.61 1013.91 1013.25 1012.44 1011.72 1011.54 1011.83 1011.96 1012.30 1011.78 1008.57 1005.85 1005.75 1005.26 1005.86 1006.46 1006.98 1007.43 1007.64 1007.92 1008.32 1008.46 1008.22 1008.11 1008.05 1007.95 1007.56 1006.97 1006.85 1006.77 1007.74
1023.30 1022.91 1022.54 1022.15 1021.71 1021.22 1020.73 1020.25 1019.73 1019.14 1018.51 1017.81 1017.02 1016.42 1015.75 1014.84 1014.17 1013.59 1012.71 1011.44 1011.22 1011.34 1011.72 1011.67 1011.36 1011.04 1007.68 1005.71 1004.93 1004.83 1005.10 1005.83 1006.65 1007.29 1007.90 1008.07 1008.48 1008.56 1008.62 1008.86 1009.03 1008.66 1008.28 1007.43 1007.06 1007.31 1007.93
1023.16 1022.86 1022.58 1022.18 1021.73 1021.25 1020.71 1020.16 1019.55 1018.91 1018.25 1017.56 1016.84 1016.08 1015.41 1014.40 1013.69 1013.41 1012.57 1011.67 1011.33 1011.20 1010.60 1009.61 1009.12 1008.20 1006.10 1004.91 1004.42 1004.66 1004.78 1005.52 1006.33 1007.30 1007.99 1008.03 1008.81 1008.94 1008.73 1008.63 1008.57 1008.54 1008.39 1007.88 1006.94 1006.92 1007.67
1023.43 1023.19 1022.73 1022.20 1021.62 1021.08 1020.60 1020.02 1019.36 1018.67 1017.97 1017.27 1016.59 1015.86 1014.98 1013.94 1013.14 1012.79 1012.87 1011.94 1009.78 1008.96 1008.99 1008.01 1007.44 1007.17 1006.01 1005.18 1004.82 1004.85 1004.77 1005.67 1006.50 1007.35 1007.84 1008.46 1008.48 1008.32 1008.19 1008.10 1008.26 1008.43 1008.32 1007.48 1006.95 1006.63 1006.68
1023.39 1023.06 1022.59 1022.06 1021.57 1021.02 1020.44 1019.76 1019.12 1018.47 1017.70 1016.86 1016.26 1015.50 1014.56 1013.50 1012.51 1012.01 1011.69 1010.18 1008.31 1008.59 1008.86 1006.95 1006.01 1005.66 1005.10 1004.70 1004.85 1004.77 1004.94 1005.50 1006.20 1007.20 1007.75 1008.23 1007.54 1007.60 1007.86 1007.76 1008.00 1007.98 1007.98 1007.18 1007.18 1007.17 1007.49
1023.30 1022.91 1022.50 1021.98 1021.47 1020.90 1020.35 1019.67 1018.94 1018.12 1017.37 1016.62 1015.84 1015.16 1014.40 1013.17 1012.26 1012.13 1010.59 1008.89 1008.43 1008.22 1008.88 1006.73 1005.30 1004.45 1004.60 1004.72 1004.78 1004.51 1004.84 1005.48 1006.07 1006.75 1007.39 1007.73 1006.94 1007.16 1007.28 1007.27 1007.44 1007.58 1006.76 1006.80 1006.96 1007.16 1008.08
1023.24 1022.90 1022.34 1021.86 1021.29 1020.74 1020.18 1019.52 1018.58 1017.75 1016.92 1016.08 1015.32 1014.78 1014.29 1014.06 1013.42 1012.26 1009.72 1008.77 1008.40 1008.49 1008.11 1005.58 1004.83 1003.98 1004.33 1004.99 1005.10 1005.08 1004.83 1005.34 1006.12 1006.58 1007.21 1007.09 1006.59 1006.52 1006.57 1006.33 1006.49 1006.75 1005.98 1006.40 1006.88 1007.68 1008.34
1023.61 1023.08 1022.40 1021.68 1021.05 1020.43 1019.82 1019.18 1018.33 1017.41 1016.49 1015.56 1014.73 1014.41 1014.16 1013.69 1013.48 1010.75 1009.68 1008.98 1008.73 1009.61 1007.24 1005.49 1004.75 1004.49 1005.01 1005.26 1005.37 1005.28 1005.48 1005.80 1006.21 1006.77 1007.00 1006.82 1006.09 1005.98 1005.79 1005.58 1005.74 1005.67 1006.19 1006.78 1007.79 1008.50 1009.26
1023.23 1022.58 1022.10 1021.51 1020.92 1020.14 1019.44 1018.90 1018.12 1017.18 1016.14 1015.06 1014.05 1013.60 1013.85 1013.12 1011.54 1009.80 1009.61 1009.58 1009.94 1009.04 1006.60 1006.08 1005.60 1005.36 1005.68 1005.86 1006.11 1006.03 1006.35 1006.74 1007.28 1007.85 1007.83 1007.24 1006.50 1005.84 1005.44 1005.54 1005.38 1005.75 1007.38 1008.63 1009.48 1009.92 1010.19
1022.97 1022.42 1021.91 1021.34 1020.78 1020.02 1019.23 1018.60 1017.91 1016.86 1015.83 1014.58 1013.61 1012.56 1012.20 1011.32 1010.13 1010.22 1010.25 1010.34 1010.13 1008.83 1007.90 1006.69 1006.05 1006.27 1006.66 1006.53 1006.70 1006.80 1007.25 1008.01 1008.22 1008.54 1008.98 1008.77 1007.87 1007.01 1006.80 1006.66 1006.52 1006.77 1007.78 1009.31 1010.39 1010.91 1010.60
1023.19 1022.77 1022.06 1021.30 1020.65 1019.86 1019.09 1018.29 1017.62 1016.58 1015.61 1014.48 1013.22 1012.28 1011.87 1009.90 1009.64 1010.35 1010.82 1010.94 1011.04 1009.81 1009.00 1007.94 1007.10 1007.48 1007.70 1007.31 1007.35 1007.66 1008.64 1009.32 1009.50 1009.49 1009.90 1010.13 1009.21 1008.22 1007.60 1007.54 1007.37 1007.45 1008.32 1008.86 1010.41 1011.30 1011.17
1023.12 1022.54 1021.68 1020.97 1020.44 1019.63 1018.90 1018.20 1017.42 1016.37 1015.25 1014.32 1013.86 1013.18 1011.39 1008.87 1009.32 1010.40 1011.37 1011.50 1010.82 1010.01 1009.29 1009.00 1009.62 1009.60 1009.88 1009.64 1009.31 1009.01 1009.86 1010.65 1010.47 1010.46 1010.23 1011.26 1011.02 1010.15 1009.03 1008.18 1008.33 1009.48 1009.20 1009.83 1011.30 1012.33 1012.26
1022.88 1022.44 1021.78 1021.02 1020.16 1019.54 1018.76 1018.09 1017.36 1016.34 1015.15 1013.96 1013.86 1012.97 1010.04 1008.99 1009.46 1011.18 1011.94 1011.77 1011.30 1010.46 1009.97 1010.26 1010.91 1011.04 1011.34 1011.24 1011.16 1011.20 1011.75 1011.83 1011.39 1011.46 1011.51 1012.23 1012.77 1011.92 1010.81 1011.47 1011.74 1011.13 1011.72 1011.96 1012.12 1012.23 1012.46
1022.78 1022.13 1021.45 1020.78 1020.06 1019.38 1018.77 1018.02 1017.40 1016.52 1015.44 1014.35 1014.50 1013.44 1009.98 1009.33 1011.01 1012.04 1012.63 1012.26 1012.08 1011.90 1011.29 1011.43 1011.72 1012.35 1012.82 1012.65 1012.98 1012.83 1013.12 1012.68 1012.36 1012.23 1013.40 1013.85 1014.38 1014.40 1013.34 1012.73 1012.34 1012.51 1014.06 1014.54 1014.84 1013.84 1013.10
1022.64 1022.07 1021.32 1020.60 1020.04 1019.36 1018.81 1018.03 1017.47 1016.84 1016.46 1016.56 1015.82 1014.19 1010.99 1010.36 1012.98 1013.82 1013.55 1013.44 1013.46 1013.24 1013.38 1013.42 1013.71 1013.82 1013.95 1014.38 1014.46 1014.30 1014.06 1013.90 1013.42 1013.74 1014.67 1015.00 1016.21 1016.32 1014.56 1014.16 1014.13 1014.68 1014.90 1015.66 1015.54 1015.02 1014.01
1022.77 1022.27 1021.42 1020.66 1020.05 1019.38 1018.82 1017.92 1017.32 1016.70 1016.48 1016.70 1016.12 1015.34 1013.92 1013.59 1014.43 1014.69 1015.02 1015.38 1014.92 1014.59 1014.90 1015.02 1015.54 1014.95 1015.31 1015.90 1015.85 1016.15 1015.86 1015.58 1014.98 1014.94 1015.32 1015.64 1017.51 1018.24 1018.02 1017.67 1016.94 1016.24 1015.89 1015.89 1016.32 1016.04 1015.60
1022.51 1022.01 1021.40 1020.62 1020.00 1019.42 1018.89 1017.95 1017.26 1016.25 1015.63 1015.96 1016.27 1016.80 1016.03 1016.30 1016.37 1016.14 1016.17 1016.77 1016.38 1016.23 1016.15 1016.18 1016.62 1016.86 1017.18 1017.60 1017.55 1017.81 1017.54 1017.06 1016.55 1016.55 1016.57 1017.44 1018.80 1018.98 1018.88 1018.20 1017.36 1016.86 1016.12 1016.07 1016.34 1016.48 1016.36
1022.51 1022.02 1021.48 1020.89 1020.17 1019.55 1019.04 1018.23 1017.55 1016.46 1015.37 1015.63 1016.78 1017.11 1016.88 1017.34 1017.30 1017.23 1017.56 1018.02 1017.71 1017.58 1017.28 1017.91 1018.14 1018.21 1018.14 1018.84 1019.19 1019.23 1019.17 1018.98 1018.60 1018.30 1018.53 1019.02 1019.69 1020.04 1020.09 1019.11 1018.22 1017.20 1016.58 1016.16 1016.14 1016.12 1016.22
1022.40 1021.96 1021.51 1021.04 1020.37 1019.72 1019.20 1018.60 1018.04 1017.26 1016.00 1016.99 1016.98 1016.86 1017.10 1018.44 1018.58 1018.63 1018.74 1018.56 1018.63 1018.23 1018.32 1018.15 1018.34 1018.53 1018.74 1018.96 1018.98 1019.06 1019.20 1019.59 1019.67 1019.96 1020.13 1020.36 1020.65 1021.32 1021.42 1020.41 1019.38 1017.82 1016.68 1016.42 1016.44 1016.68 1016.64
1022.38 1021.98 1021.60 1021.22 1020.56 1019.98 1019.53 1018.82 1018.54 1018.03 1017.86 1018.13 1017.79 1017.80 1018.42 1019.50 1019.06 1019.02 1018.92 1018.81 1018.82 1018.76 1018.68 1018.57 1018.43 1018.62 1018.84 1018.62 1018.64 1018.70 1019.00 1019.46 1019.78 1019.84 1020.20 1020.92 1021.54 1021.92 1022.35 1021.62 1020.61 1018.16 1016.94 1016.61 1017.06 1017.56 1017.50
1022.19 1021.82 1021.60 1021.24 1020.75 1020.16 1019.83 1019.33 1019.00 1018.68 1018.20 1018.06 1017.90 1018.02 1018.89 1019.47 1019.06 1018.82 1018.84 1018.85 1018.88 1018.86 1018.84 1018.59 1018.59 1018.64 1018.66 1019.15 1019.95 1020.42 1020.46 1020.23 1020.43 1020.54 1020.64 1020.81 1021.52 1022.60 1022.74 1022.21 1020.50 1018.62 1017.39 1016.90 1017.04 1018.55 1018.60
1022.00 1021.73 1021.33 1021.06 1020.83 1020.43 1020.01 1019.60 1019.18 1018.92 1018.51 1018.09 1017.98 1017.91 1018.62 1019.29 1019.00 1018.18 1018.57 1018.86 1019.22 1019.31 1019.16 1018.96 1018.79 1018.70 1019.28 1020.66 1021.73 1022.47 1022.73 1022.76 1022.34 1021.89 1021.26 1021.58 1021.69 1022.67 1023.25 1022.77 1021.60 1019.67 1018.53 1017.66 1017.14 1018.86 1019.40
1021.87 1021.66 1021.38 1021.10 1020.88 1020.59 1020.22 1019.78 1019.42 1019.16 1018.84 1018.78 1018.34 1017.80 1018.45 1019.17 1018.44 1017.79 1018.18 1018.66 1018.68 1019.23 1019.63 1019.34 1019.39 1019.78 1020.31 1022.02 1023.23 1023.92 1024.24 1024.25 1024.07 1023.71 1023.29 1023.00 1023.14 1023.16 1023.03 1022.62 1021.36 1020.29 1019.31 1018.14 1018.94 1020.46 1020.13
1021.63 1021.56 1021.46 1021.14 1020.85 1020.73 1020.37 1020.08 1019.66 1019.51 1019.23 1019.22 1018.76 1018.03 1018.72 1019.04 1018.22 1017.39 1017.30 1017.77 1018.30 1018.80 1019.51 1019.68 1020.41 1020.88 1021.90 1023.25 1024.17 1025.08 1025.01 1025.11 1025.05 1024.38 1024.02 1023.95 1023.94 1023.70 1023.41 1022.82 1021.96 1021.05 1020.23 1020.49 1020.90 1020.57 1020.50
1021.47 1021.41 1021.35 1021.15 1020.90 1020.76 1020.51 1020.26 1019.96 1019.94 1019.71 1019.52 1019.44 1018.48 1018.38 1018.97 1018.08 1017.16 1016.75 1016.57 1017.02 1017.50 1018.46 1019.42 1020.27 1021.01 1021.87 1023.47 1024.38 1025.06 1025.39 1025.31 1025.26 1024.85 1024.14 1024.10 1023.70 1023.90 1023.70 1022.40 1021.81 1021.90 1021.83 1021.52 1021.34 1021.21 1020.56
Wind_Speed
15 15 16 16 16 16 17 19 19 19 20 21 21 21 21 22 21 21 21 20 19 16 13 11 6 4 1 1 10 5 14 15 8 7 8 6 7 5 5 5 11 12 12 9 7 16 14
15 15 15 16 16 16 18 18 19 19 20 21 22 22 22 22 22 21 21 20 19 15 12 10 6 4 2 3 5 12 13 10 7 9 7 8 8 10 6 8 8 5 9 16 15 14 12
14 15 16 16 17 17 17 19 19 20 21 22 22 22 22 22 23 23 22 21 20 15 10 8 2 4 3 12 2 11 14 11 9 11 8 14 5 3 5 7 9 9 5 8 16 15 10
13 14 16 16 16 16 17 19 20 19 20 22 23 23 23 24 24 24 23 22 21 16 8 5 4 3 8 7 5 9 8 4 8 8 6 1 5 7 5 8 8 6 2 0 8 12 8
12 13 14 16 16 16 17 18 19 19 20 20 22 23 24 24 24 23 22 27 22 10 7 7 2 3 9 10 5 8 9 8 8 4 6 5 1 6 4 3 6 7 4 5 3 18 10
13 14 14 16 17 16 17 18 19 20 20 21 22 22 23 25 23 23 24 26 4 7 5 6 6 3 6 4 3 5 7 10 5 6 0 3 2 2 3 5 4 4 4 6 5 7 9
13 15 16 17 18 17 18 19 20 21 21 21 22 23 23 25 25 21 14 5 4 3 2 8 6 4 3 2 3 2 3 7 4 5 4 4 4 5 9 6 7 3 5 11 15 7 6
14 16 17 17 18 18 19 20 20 22 22 22 23 23 24 25 26 24 2 1 6 6 7 10 15 11 14 5 1 4 2 4 6 5 3 4 6 9 7 6 7 7 8 15 13 7 8
14 15 15 16 17 18 19 19 20 21 22 23 23 23 25 27 30 5 4 7 9 4 1 9 7 5 6 4 3 6 9 5 4 6 6 7 10 7 7 7 8 9 8 15 12 6 12
13 13 15 16 18 19 20 22 22 22 22 22 23 23 23 28 4 6 6 4 8 5 5 8 5 5 4 5 3 6 4 3 2 8 6 6 14 9 10 12 6 7 8 11 5 5 3
13 15 15 17 20 21 22 23 22 22 22 23 23 22 20 13 4 3 7 11 9 7 1 3 3 2 4 7 6 4 2 3 1 2 4 8 5 7 7 13 7 12 13 6 2 2 5
16 16 18 18 20 20 20 22 22 22 23 24 23 21 18 2 2 9 9 12 6 6 3 4 4 4 5 2 1 4 2 3 0 2 1 7 4 4 8 9 8 10 2 6 5 4 4
16 16 17 18 19 19 20 21 22 23 24 26 26 22 11 3 6 5 7 5 5 2 6 4 4 5 5 5 4 4 3 2 3 4 2 5 5 4 1 3 6 4 8 4 6 5 5
16 16 17 18 19 20 20 21 22 23 24 27 26 25 5 6 6 5 5 6 7 7 5 6 4 5 6 5 2 3 4 3 5 1 2 1 5 8 9 5 2 1 9 7 6 2 4
17 18 19 19 19 19 20 21 22 23 25 25 22 4 3 7 7 3 5 6 1 5 6 8 5 4 9 5 7 4 8 9 4 5 6 3 4 5 9 5 1 5 1 6 6 1 5
17 18 18 18 20 20 19 20 22 24 26 26 3 4 5 6 5 5 6 5 3 5 7 7 8 6 7 8 8 4 6 7 4 9 3 3 3 3 7 8 12 8 5 3 4 3 3
18 18 20 19 20 21 19 20 21 23 27 20 2 5 6 2 5 6 2 2 8 14 12 9 7 6 5 4 6 6 5 3 5 5 10 4 4 9 5 7 3 9 8 7 2 5 6
18 18 18 20 19 19 20 20 20 20 24 7 3 5 7 4 6 1 4 4 7 10 13 9 9 9 5 6 7 6 7 6 5 3 5 6 3 4 5 6 2 4 5 6 5 8 1
17 19 18 18 18 19 20 20 19 16 12 3 2 3 6 7 5 5 5 12 14 10 11 7 11 8 6 7 6 6 6 7 12 7 3 5 4 5 14 8 9 7 7 5 5 2 2
17 18 19 18 18 19 20 20 20 18 8 3 3 5 6 6 1 4 5 7 5 12 15 10 8 8 9 9 8 6 8 11 8 6 12 7 4 5 5 3 4 7 13 10 5 2 5
17 17 18 18 18 19 20 20 22 24 20 4 4 1 2 4 7 7 13 5 13 8 6 13 9 12 5 7 6 7 9 8 7 13 7 6 2 4 2 6 8 9 12 11 7 4 4
16 17 17 17 17 18 19 20 22 26 18 5 4 4 5 2 5 12 7 6 7 6 7 5 6 7 10 6 3 4 6 5 3 9 7 6 2 5 7 7 10 13 10 11 11 5 5
15 16 16 17 16 17 17 18 20 21 14 4 3 3 6 6 4 5 4 4 5 3 7 6 6 4 7 5 3 4 5 5 6 0 3 1 4 3 1 5 7 10 2 3 7 9 1
13 14 15 16 16 15 16 16 18 19 13 2 2 2 5 2 4 3 4 5 3 1 1 1 6 4 4 5 5 3 2 4 5 8 6 4 4 3 4 5 4 6 7 5 8 10 7
11 12 13 14 14 13 14 15 16 17 18 3 3 4 4 2 2 3 5 3 1 1 2 4 3 2 3 7 5 7 7 4 5 3 6 3 5 2 5 5 7 10 7 3 4 4 8
9 10 11 11 12 12 13 14 15 15 17 3 2 2 4 5 4 3 5 3 2 2 4 3 2 4 7 3 4 3 3 3 4 9 5 6 5 5 2 4 6 1 13 16 3 3 8
8 8 9 10 10 11 12 13 14 15 15 3 3 2 4 3 4 4 3 4 2 2 2 2 1 5 5 3 3 3 2 1 2 3 5 5 4 3 4 5 6 6 13 10 3 3 6
6 7 8 8 8 9 10 10 11 12 14 6 4 3 4 1 5 2 4 4 1 3 4 5 5 6 4 4 4 2 3 1 2 3 3 1 2 2 2 3 6 9 4 3 5 4 4
6 6 7 7 7 7 8 9 9 10 12 9 2 4 1 3 7 4 3 6 8 9 6 3 6 4 5 5 2 2 2 3 4 2 2 4 5 4 6 3 3 1 4 5 4 5 5
Wind_Direction
356 355 353 351 351 349 346 346 346 344 343 341 339 339 337 335 334 333 331 329 326 323 322 317 303 257 182 199 250 167 147 162 146 154 176 177 190 193 222 221 248 252 265 238 210 158 150
353 351 349 348 348 346 345 344 344 342 341 339 337 336 335 333 332 332 330 324 321 319 317 305 289 179 202 256 226 147 143 142 174 162 179 173 205 213 269 246 242 277 289 278 150 152 147
350 348 346 346 345 344 343 342 341 339 338 337 335 334 332 331 330 329 326 319 313 309 304 292 198 212 260 239 212 149 157 176 172 177 162 211 221 266 350 308 251 254 286 304 140 157 153
349 345 344 343 343 342 340 340 339 337 336 334 331 333 331 328 327 326 322 312 308 297 263 247 190 247 247 248 232 186 198 155 167 181 217 199 207 276 205 268 331 347 59 15 147 157 160
339 343 343 344 342 339 337 336 336 335 333 331 328 330 329 326 325 324 321 309 305 279 194 165 126 197 268 312 213 219 154 170 164 179 222 253 207 221 292 270 6 9 274 292 148 179 157
346 349 345 344 342 338 337 336 335 333 331 329 326 328 327 323 323 324 322 307 263 115 178 183 254 309 274 222 204 171 182 144 165 145 195 160 167 265 20 78 225 259 345 325 270 178 146
350 352 346 345 342 339 338 336 334 332 329 326 325 326 325 321 321 324 340 2 25 45 242 193 195 263 284 221 108 202 205 134 123 99 158 205 101 215 234 185 214 251 282 276 283 256 139
355 354 348 344 339 336 335 334 331 328 326 325 326 325 323 320 319 318 248 284 234 193 305 231 243 244 261 265 232 241 115 123 140 179 175 349 221 219 217 213 241 263 266 276 283 292 169
0 351 345 339 337 336 333 331 331 325 324 323 325 325 323 321 318 310 200 233 272 27 18 290 210 192 229 125 228 204 137 169 163 169 177 177 240 223 232 245 241 249 230 263 255 83 53
355 349 345 341 336 335 335 336 329 324 323 322 325 325 327 330 347 330 280 282 322 136 54 275 187 244 157 139 319 148 153 133 176 194 205 204 245 229 224 248 207 264 223 252 282 49 191
353 349 346 341 343 342 338 333 324 324 324 324 324 323 329 324 283 306 261 333 326 57 39 194 134 169 158 129 148 348 69 64 203 246 96 252 226 222 221 235 199 240 253 239 122 86 97
354 349 346 343 341 338 330 327 326 325 324 322 319 321 331 82 235 244 317 308 53 53 235 141 141 147 96 167 24 146 95 80 235 267 190 226 239 198 219 255 228 230 238 23 68 95 49
347 346 340 336 334 331 331 329 327 327 326 322 318 317 309 261 241 338 331 29 55 141 334 128 170 139 142 198 146 159 158 150 144 83 329 336 301 283 282 12 343 114 61 1 346 25 208
344 340 340 338 334 332 334 331 330 330 329 323 322 316 214 219 248 6 8 48 51 355 353 323 115 112 170 147 163 106 92 33 60 222 113 120 349 3 2 352 7 45 146 156 186 186 274
344 344 342 338 335 335 336 334 333 333 332 329 321 325 289 260 228 141 51 44 45 344 321 328 19 44 7 13 129 115 89 7 45 5 113 81 262 326 38 336 73 288 125 187 125 72 64
345 342 342 342 342 338 339 339 338 338 334 335 4 343 280 257 142 67 66 359 57 18 6 35 61 26 50 359 43 35 65 320 44 14 86 345 344 21 317 16 24 83 285 30 22 135 182
344 343 346 341 344 344 343 343 340 342 335 329 27 27 262 354 73 47 73 77 39 13 33 44 13 43 47 46 45 36 17 337 35 16 50 58 80 299 30 49 335 350 9 353 92 131 153
343 346 345 343 336 341 343 344 342 345 338 23 13 39 303 73 39 55 55 18 40 17 16 14 48 60 46 16 50 60 51 46 23 30 46 333 100 336 249 270 295 147 71 61 52 311 90
342 345 346 340 339 345 342 344 341 348 17 343 49 275 323 57 59 2 344 74 60 38 13 14 16 24 30 27 73 57 78 39 55 53 44 324 24 11 336 7 23 34 12 12 270 357 253
344 343 345 341 346 347 343 346 341 343 357 125 53 28 337 35 65 106 92 28 57 32 44 52 39 40 31 24 8 56 31 14 28 73 63 64 69 131 196 187 261 325 330 346 94 358 326
344 343 340 346 347 349 344 351 345 344 353 126 39 312 207 345 357 57 62 51 50 19 31 16 25 26 24 30 27 29 5 358 15 26 26 82 77 19 338 335 332 325 319 331 336 293 282
342 345 345 347 349 350 348 355 352 353 354 65 84 57 8 26 19 51 38 3 47 5 33 34 60 25 51 74 102 322 23 32 335 350 27 3 336 52 4 354 336 315 306 315 314 314 5
342 345 347 349 349 352 350 0 358 2 3 55 324 354 95 322 22 65 3 48 42 34 19 85 76 54 45 359 303 242 209 195 229 129 337 117 128 81 260 22 347 301 275 3 335 39 108
345 346 348 348 352 352 350 4 3 9 24 122 267 91 75 344 73 99 69 89 85 67 113 85 77 79 289 317 327 341 276 233 258 279 165 154 133 125 177 65 253 249 309 314 85 66 36
346 347 348 347 349 351 352 4 9 8 5 67 328 73 84 71 132 85 122 121 350 39 324 97 42 222 5 25 32 10 4 33 21 23 27 144 135 143 152 184 283 306 284 224 140 90 38
345 343 344 347 348 350 355 2 10 11 6 31 318 115 97 114 300 295 123 66 119 3 344 82 23 30 55 66 61 68 50 352 349 341 23 41 74 117 115 152 238 264 331 329 168 150 354
341 340 340 347 347 351 357 4 11 10 8 11 292 41 88 99 284 96 132 160 146 107 165 328 54 15 55 50 65 56 91 232 29 333 331 333 356 154 200 222 260 339 321 318 201 258 356
332 334 335 339 342 346 350 358 16 8 6 28 281 351 97 59 279 59 167 135 90 106 143 252 43 0 42 61 94 222 89 143 212 274 285 277 307 340 273 231 253 1 345 339 347 289 299
325 328 329 330 335 338 339 346 15 9 6 9 338 325 3 127 233 250 244 181 169 181 140 13 171 159 169 93 129 94 154 170 174 254 301 201 177 195 197 247 158 310 275 334 338 266 297